Voltar ao catálogo

NIMBUS 2 DEB

AtivoLEO
NORAD 28203·DEBRIS·🇺🇸 United States

Lançado May 15, 1966 de Vandenberg Space Force Base

Loading…

Próximas Passagens (próximas 24 horas)

TLE

AtualizadoSource: Space-Track

Época: Sep 14, 2026, 15:41 UTC

1 28203U 66040R   26257.65357071  .00001511  00000-0  23860-2 0  9996
2 28203 100.3269 150.4383 0050710  61.3276 327.7182 13.51191672196934

Acompanhe NIMBUS 2 DEB em tempo real com AllMySat

Download on the App Store